Starlink 31834

operational
NORAD ID: 59721 Int'l Des: 2024-088 Owner: SPXS Country: US Constellation: starlink
LEOCIRCULAR

Starlink 31834について

説明を読み込み中...

リアルタイム位置

3D地球を読み込み中...

次回通過

高度履歴

Altitude vs Time

uPlot chart will show altitude changes over time

軌道要素

1 59721U 24088P 25258.34656778 .00000428 00000-0 26582-4 0 9995
2 59721 53.1580 234.5514 0001596 86.1822 273.9361 15.30197183 77014
Epoch: Sep 15, 2025 • Age: 25 hours

現在のステータス

高度 480.2 km
速度 7.63 km/s
衛星直下点 50.91°N, 154.66°E
打ち上げ日 May 10, 2024
運用期間 1.3 years
タイプ internet

技術仕様

分類 Payload
質量 730.00 kg
乾燥質量 700.00 kg
総質量 730.00 kg
長さ 0.30 m
直径 4.10 m
スパン 29.00 m
形状 Box + pan
製造者 SPXS
バスタイプ Starlink V2M
フェーズステータス In Orbit
所有者/国 SPXS/US

大規模コンステレーション

Loading constellations...